Showing default

PROX-1, 44339

Orbit data source: Space-Track

PROX-1, 44339 is a payload satellite owned by GaTech (US) in LEO that was launched on Tue, 25 Jun 2019 UTC via an FALCON HEAVY launch vehicle from the Air Force Eastern Test Range (AFETR). Payload-class satellites include a variety of spacecraft equipped with specific instruments for various scientific and technological missions. These include communications satellites like Starlink; space stations such as the ISS; scientific satellites like the Hubble; Earth observation satellites from companies like Planet Labs, Umbra, and HawkEye 360; GPS; miniature CubeSats for education and research; and military/defense satellites.

Not visible in the next 10 days
Identifier
44339, 2019-036A
Orbit
LEO
Country
Flag of USUS
Related business
Manufacturer
GaTech
Mission
Operational Amateur Technology
Bus & Motor
PROX-1, Unknown motor
Mass
70 kg wet, 70 kg dry
Launch date (UTC)
2019-06-25 (6 years ago)
Launch vehicle
FALCON HEAVY
Launch site
Air Force Eastern Test Range (AFETR)
Object type
Payload
Rocket body
Debris
Shape & HBR
Box + 1 Tether, 0.3 m
Radar Cross Section
0.360 m², Medium (>0.1 m² and < 1m²)

Expand to show TLE details & history
Last TLE update: 17 hours ago

TLE from 17 hours ago
0 PROX-1
1 44339U 19036A   25343.01240183  .00017262  00000-0  19414-2 0  9997
2 44339  23.9967 299.4549 0006290 359.4077   0.6413 14.85034769345110
Epoch: 2025-12-09T00:17Z
TLE epoch observation values (Epoch: 2025-12-09T00:17:51.518Z)
Latitude
-0.00001°
Longitude
-143.01297°
Altitude
606.981 km
Speed
7.561 km/s
True Right ascension
19h 57m 49s
True Declination
0° 00' 00"
Sunlit
Object was in daylight at epoch
Visualization orbit readout
Latitude
Unknown
Longitude
Unknown
Altitude
Unknown
Speed
Unknown
Apparent Right ascension
Unknown
Apparent Declination
Unknown
Sunlit
N/A
Visualization observer readout
Local Sidereal Time
15:14:51
Azimuth
Unknown
Elevation
Unknown
Doppler factor
Unknown
Orbital elements
Apogee altitude
622.621 km
Perigee altitude
613.819 km
Semi-major axis
6,996.357 km
Eccentricity
0.00063
Inclination
23.9967°
RAAN
299.4549°
Arg. of periapsis
359.4077°
True anomaly
0.64211°
Mean anomaly
0.6413°
Eccentric anomaly
0.6417°
Mean motion
3.70882 °/min
Orbital period
97.07 mins
BSTAR
0.0019414
Loading maneuver chart data...
Computing Atmospheric mass density...

Documentation

Showing up to 5 results
|